User: anonymous   Login
Location: Unspecified
(0.0000°N, 0.0000°E)
Time: 03:40:35
(UTC+00:00)
Language:

Nadezhda 5 - Orbit

View from above orbital plane
View from above orbital plane
View from above satellite
View from above satellite

Ground track
Ground track

The orbit data is extracted from the following two-line orbital elements,

1 25567U 98072A   18230.00187811  .00000022  00000-0  74603-5 0  9990
2 25567  82.9470  34.1501 0027008 123.7293 350.5130 13.71836225985709
Epoch (UTC): 18 August 2018 00:02:42
Eccentricity: 0.0027008
inclination: 82.9470°
perigee height: 973 km
apogee height: 1013 km
right ascension of ascending node: 34.1501°
argument of perigee: 123.7293°
revolutions per day: 13.71836225
mean anomaly at epoch: 350.5130°
orbit number at epoch: 98570

The dashed part of the orbit path shows where the satellite is in the earth's shadow,  

DLR